Location: Fuglau
(48.6333°N, 15.5500°E)
Time: 23:03:32
(UTC+00:00)

Cosmos 1634 Rocket - Pass Details

Date: 27 February 2020
Orbit: 959 x 993 km, 82.9° (Epoch: 05 April)

Event Time Altitude Azimuth Distance (km) Brightness Sun altitude
Rises 18:50:06 0° 177° (S) 3,690 6.9 -22.6°
Reaches altitude 10° 18:52:37 10° 174° (S) 2,748 6.2 -23.0°
Maximum altitude 18:58:51 66° 94° (E) 1,080 3.9 -24.0°
Drops below altitude 10° 19:05:08 10° 14° (NNE) 2,767 6.4 -25.0°
Sets 19:07:41 0° 12° (NNE) 3,718 7.1 -25.4°
